Regional Weather Roundup
Issued by NWS

Home | Current Version | Previous Version | Text Only | Print | Product List | Glossary Off
Versions: 1 2 3 4 5 6 7 8 9 10 11 12 13 14 15 16 17 18 19 20 21 22 23 24 25 26 27 28 29 30 31 32 33 34 35 36 37 38 39 40 41 42 43 44 45 46 47 48 49 50

000
ASUS43 KMPX 291310
RWRMN
WEATHER ROUNDUP FOR MINNESOTA
NATIONAL WEATHER SERVICE TWIN CITIES/CHANHASSEN MN
800 AM CDT FRI JUL 29 2016


NOTE: "FAIR" INDICATES FEW OR NO CLOUDS BELOW 12,000 FEET WITH NO
SIGNIFICANT WEATHER AND/OR OBSTRUCTIONS TO VISIBILITY. N/A MEANS
CURRENT SKY AND/OR WEATHER CONDITIONS ARE NOT AVAILABLE.

MNZ060>063-068>070-291400-
   Twin Cities Metro

CITY           SKY/WX    TMP DP  RH WIND       PRES   REMARKS
TWIN CITIES    PTSUNNY   64  55  72 NE8       30.07R
ST PAUL        CLOUDY    64  55  72 NE5       30.07S
CRYSTAL        SUNNY     63  53  70 NE6       30.06S
BLAINE         MOSUNNY   63  57  82 NE6       30.08R
LAKEVILLE      MOSUNNY   63  59  88 N6        30.06R
EDEN PRAIRIE   SUNNY     65  56  72 NE6       30.06R
LAKEVILLE      MOSUNNY   63  59  88 N6        30.06R
SOUTH ST PAUL  PTSUNNY   64  55  74 NE7       30.06S
LAKE ELMO      FAIR      63  55  77 NE7       30.08S
$$
MNZ001>005-007-008-013>017-022>024-027-028-291400-
   Northwest Minnesota

CITY           SKY/WX    TMP DP  RH WIND       PRES   REMARKS
BEMIDJI        SUNNY     61  57  88 CALM      30.10S
HALLOCK        SUNNY     61  57  88 CALM      30.09R
ROSEAU         SUNNY     59  54  82 CALM      30.10R
WARROAD        SUNNY     63  59  88 NW3       30.10S
THIEF RVR FALL SUNNY     62  57  83 CALM      30.11R
CROOKSTON      SUNNY     55  55 100 CALM      30.10S
FOSSTON        SUNNY     59  57  94 CALM      30.10S
DETROIT LAKES  SUNNY     63  61  94 CALM      30.10F
MOORHEAD       SUNNY     61  57  88 CALM      30.09S
PARK RAPIDS    SUNNY     62  58  86 S3        30.11R
MAHNOMEN       FAIR      61  59  91 CALM      30.09S
$$
MNZ006-009>011-018-025>026-291400-
   North Central Minnesota

CITY           SKY/WX    TMP DP  RH WIND       PRES   REMARKS
BAUDETTE       SUNNY     60  55  83 E3        30.09S
FLAG ISLAND    SUNNY     66  57  72 CALM      30.09S
INTL FALLS     SUNNY     60  55  83 SE3       30.10S
WASKISH        SUNNY     61  59  94 CALM      30.09S
BIG FORK       SUNNY     63  55  77 CALM      30.11S
LONGVILLE      SUNNY     59  57  94 CALM      30.10S
GRAND RAPIDS   SUNNY     61  55  81 SE3       30.14S
CRANE LAKE     SUNNY     57  54  88 SE1       30.13F
ORR            SUNNY     55  50  82 CALM      30.10S
COOK           SUNNY     59  54  82 CALM      30.13S
WALKER         FAIR      60  58  92 CALM      30.10S
$$
MNZ012-019>021-037-291400-
   Northeast Minnesota

CITY           SKY/WX    TMP DP  RH WIND       PRES   REMARKS
DULUTH         MOSUNNY   62  53  72 E6        30.12S
ELY            MOSUNNY   57  54  88 CALM      30.13F
HIBBING        SUNNY     57  53  86 CALM      30.13S
EVELETH        SUNNY     60  54  81 CALM      30.13F
DULUTH HARBOR  SUNNY     61  55  82 CALM      30.13S
TWO HARBORS    SUNNY     64  55  72 CALM      30.11R
SILVER BAY     SUNNY     61  55  82 CALM      30.11S
GRAND MARAIS     N/A     65  53  65 VRB7      30.11R
G MARAIS ARPRT SUNNY     61  52  72 N5        30.15S
$$
MNZ029>031-032-039>041-046>048-054>057-064-291400-
   West Central Minnesota

CITY           SKY/WX    TMP DP  RH WIND       PRES   REMARKS
FERGUS FALLS   SUNNY     66  63  88 CALM      30.10S
WHEATON        SUNNY     64  63  94 CALM      30.11R
MORRIS         SUNNY     64  63  94 CALM      30.09S
ALEXANDRIA     MOSUNNY   65  58  78 CALM      30.13R
ELBOW LAKE     PTSUNNY   63  60  90 E5        30.11S
GLENWOOD       SUNNY     63  57  82 CALM      30.12R
APPLETON       SUNNY     64  57  77 CALM      30.09S
BENSON         SUNNY     63  57  82 E3        30.10S
ORTONVILLE     SUNNY     64  61  88 CALM      30.09S
MADISON        SUNNY     63  59  88 CALM      30.09S
WILLMAR        FAIR      63  59  88 CALM      30.11S
$$
MNZ033>034-036-042>043-049>051-058-059-291400-
   Central Minnesota

CITY           SKY/WX    TMP DP  RH WIND       PRES   REMARKS
ST CLOUD       SUNNY     61  55  81 E3        30.10R
SAUK CENTRE    FAIR      62  55  80 NE3       30.11R
PAYNESVILLE    SUNNY     60  58  92 CALM      30.11R
AITKIN         MOSUNNY   63  55  77 CALM      30.10S
PINE RIVER     SUNNY     61  59  94 CALM      30.14S
BRAINERD       SUNNY     62  56  80 E5        30.11S
STAPLES        PTSUNNY   59  57  94 CALM      30.11S
LONG PRAIRIE   FAIR      59  55  88 CALM      30.12R
LITTLE FALLS   SUNNY     61  54  77 CALM      30.10S
LITCHFIELD     SUNNY     63  59  88 N6        30.09S
BUFFALO        SUNNY     61  55  80 N7        30.09S
MAPLE LAKE     SUNNY     61  58  87 N7        30.10S
HUTCHINSON     SUNNY     64  57  79 CALM      30.09R
$$
MNZ037-044-045-052-053-291400-
   East Central Minnesota

CITY           SKY/WX    TMP DP  RH WIND       PRES   REMARKS
PRINCETON      SUNNY     61  55  82 NE5       30.11R
MORA           SUNNY     55  52  88 NE3       30.13R
CAMBRIDGE      SUNNY     61  52  72 N5        30.09R
RUSH CITY      MOSUNNY   58  54  86 NE3       30.11R
MOOSE LAKE     SUNNY     57  55  94 NE3       30.11S
HINCKLEY       FAIR      57  55  94 CALM      30.11S
CLOQUET        SUNNY     59  52  77 E5        30.12S
MCGREGOR       MOSUNNY   63  54  72 NE3       30.13S
$$
MNZ071>073-080-081-089-090-097-098-291400-
   Southwest Minnesota

CITY           SKY/WX    TMP DP  RH WIND       PRES   REMARKS
MONTEVIDEO     SUNNY     64  59  82 NE3       30.11R
GRANITE FALLS  SUNNY     63  59  87 N3        30.11R
CANBY          SUNNY     62  58  88 CALM      30.11S
MARSHALL       SUNNY     60  57  89 NW6       30.09S
REDWOOD FALLS  SUNNY     63  56  78 N3        30.07S
OLIVIA         SUNNY     61  55  82 N8        30.08R
PIPESTONE      SUNNY     61  55  82 NW1       30.09S
WINDOM         SUNNY     63  57  82 N6        30.08R
WORTHINGTON    SUNNY     61  58  90 N8        30.10R
JACKSON        PTSUNNY   63  59  88 NW3       30.08R
TRACY          SUNNY     61  58  90 CALM      30.09R
SLAYTON        SUNNY     60  57  90 N5        30.11R FOG
$$
MNZ065>067-074>077-082>085-091>093-291400-
   South Central Minnesota

CITY           SKY/WX    TMP DP  RH WIND       PRES   REMARKS
MANKATO        CLOUDY    63  55  77 N8        30.06R
NEW ULM        MOSUNNY   63  57  82 N5        30.07R
ST JAMES       CLOUDY    57  55  94 CALM      30.07S
FAIRMONT       CLOUDY    63  57  82 N6        30.05R
GLENCOE        SUNNY     62  59  91 N5        30.07S
FARIBAULT      CLOUDY    63  61  94 N5        30.06R
OWATONNA       CLOUDY    64  61  88 N3        30.06R
WASECA         CLOUDY    63  61  94 NE3       30.07R
ALBERT LEA     CLOUDY    64  63  94 NE9       30.04R
$$
MNZ078>079-086>088-094>096-291400-
   Southeast Minnesota

CITY           SKY/WX    TMP DP  RH WIND       PRES   REMARKS
ROCHESTER      CLOUDY    64  62  93 NE10      30.05R
RED WING       MOSUNNY   64  57  77 CALM      30.04S
STANTON        PTSUNNY   64  59  82 NE6       30.04R
DODGE CENTER   CLOUDY   N/A N/A N/A NE7       30.05R
WINONA         CLOUDY    66  59  77 NE8       30.03R
AUSTIN         CLOUDY    63  59  88 NE7       30.03R
PRESTON        CLOUDY    61  58  89 NE8       30.04R
$$
ABBREVIATIONS USED IN REMARKS
   TC - TEMPERATURES IN CELSIUS
  WCI - WIND CHILL INDEX
   HX - HEAT INDEX
  VSB - VISIBILITY
$$




USA.gov is the U.S. government's official web portal to all federal, state and local government web resources and services.